Regional Weather Roundup
Issued by NWS

Home | Current Version | Previous Version | Graphics & Text | Print | Product List | Glossary On
Versions: 1 2 3 4 5 6 7 8 9 10 11 12 13 14 15 16 17 18 19 20 21 22 23 24 25 26 27
000
ASUS45 KBOU 300007
RWRCO

WEATHER ROUNDUP FOR COLORADO
NATIONAL WEATHER SERVICE DENVER/BOULDER CO
600 PM MDT MON AUG 29 2016

NOTE: "FAIR" INDICATES FEW OR NO CLOUDS BELOW 12000 FEET WITH NO
SIGNIFICANT WEATHER AND/OR OBSTRUCTIONS TO VISIBILITY.

COZ001>005-013-030-031-300100-
...NORTHWEST COLORADO...

CITY           SKY/WX    TMP DP  RH WIND       PRES   REMARKS
CRAIG          FAIR      82  31  15 N9        30.28R
HAYDEN         FAIR      77  30  18 E9        30.30S
MEEKER         FAIR      81  28  14 NE13G26   30.27S
MOUNT WERNER   NOT AVBL
STEAMBOAT SPGS FAIR      76  35  22 E12G20    30.32S
WALDEN         FAIR      70  30  23 NE15G23   30.44S
$$

COZ006>008-011-300100-
...WEST CENTRAL VALLEYS...

CITY           SKY/WX    TMP DP  RH WIND       PRES   REMARKS
GRAND JUNCTION FAIR      84  40  21 VRB5      30.17S
MONTROSE       FAIR      74  40  29 CALM      30.26F
EAGLE          PTSUNNY   66  45  45 NE6       30.36R
RIFLE          FAIR      81  41  24 E13       30.22S
DELTA          FAIR      77  45  31 CALM      30.23S
NUCLA          FAIR     N/A N/A N/A E8        30.28R
$$

COZ017>023-064>068-300100-
...SOUTHWEST COLORADO...

CITY           SKY/WX    TMP DP  RH WIND       PRES   REMARKS
DURANGO        LGT RAIN  66  45  46 VRB3      30.34R
CORTEZ         FAIR      76  46  34 VRB5      30.25S
PAGOSA SPRINGS FAIR      67  35  30 SE5       30.40S
TELLURIDE      PTSUNNY   59  43  53 E12       30.50R
WOLF CREEK PAS FAIR      43  36  75 NE7       30.69S
$$

COZ009-010-012-014-032>034-037-058>063-300100-
...CENTRAL COLORADO...

CITY           SKY/WX    TMP DP  RH WIND       PRES   REMARKS
ASPEN          TSTM      55  46  71 SE14      30.46R
BUENA VISTA    RAIN      50  47  90 W6        30.56R
COPPER MTN     CLOUDY    45  32  61 S7        30.71S
BERTHOUD PASS  FAIR      36  25  64 E14G26    30.74S
COTTONWOOD PAS LGT RAIN  46  43  87 SW3       30.64R
GUNNISON       PTSUNNY   61  41  48 E17G26    30.47R
KREMMLING      LGT RAIN  61  43  51 S6        30.40F
LEADVILLE      CLOUDY    45  42  89 SE5       30.62R
MONARCH PASS   LGT RAIN  37  36  93 NE28G33   30.79S
SALIDA         CLOUDY    55  50  83 N8        30.60R
SUNLIGHT       CLOUDY    52  41  66 W10G21    30.64R
WILKERSON PASS DRIZZLE   37  37 100 E7        30.72R
$$

COZ069>075-300100-
...SAN LUIS VALLEY/SANGRE DE CRISTO MOUNTAINS...

CITY           SKY/WX    TMP DP  RH WIND       PRES   REMARKS
ALAMOSA        FAIR      67  42  40 NW8       30.40R
LA VETA PASS   CLOUDY    48  43  81 NE13G18   30.58R
SAGUACHE       CLOUDY    52  48  87 NW17      30.47F
$$

COZ035-036-038>040-300100-
...NORTHERN COLORADO FRONT RANGE...

CITY           SKY/WX    TMP DP  RH WIND       PRES   REMARKS
DENVER INTL AP PTSUNNY   70  45  40 SW16      30.31R
DMNS CITY PARK   N/A     65  50  56 S8        30.33R
AURORA         PTSUNNY   66  46  48 SW12      30.34R
FRONT RANGE AP PTSUNNY   72  48  43 MISG      30.34
ERIE MUNI ARPT CLOUDY    70  49  47 N18G25    30.34R
BOULDER MUN AP CLOUDY    64  50  59 N17G25    30.33R
CENTENNIAL     PTSUNNY   63  47  55 SW17      30.34F
BROOMFIELD     PTSUNNY   70  48  46 S9        30.33R
FORT COLLINS   FAIR      64  54  68 SE5       30.29S
LONGMONT       LGT RAIN  64  55  72 W6        30.36R
$$

COZ041-046-047-076>085-087-088-300100-
...PIKES PEAK/PALMER DIVIDE AND SOUTHERN FOOTHILLS...

CITY           SKY/WX    TMP DP  RH WIND       PRES   REMARKS
COLO. SPRINGS  LGT RAIN  58  55  90 NW13      30.45R
A. F. ACADEMY  LGT RAIN  55  50  83 W8        30.45F
SCHRIEVER AFB  NOT AVBL
ELLICOTT       NOT AVBL
FALCON         LGT RAIN  54  50  87 W13       30.47R
FORT CARSON    LGT RAIN  58  51  77 N14       30.40R
LIMON          FAIR      68  55  63 SW3       30.32R
MONUMENT HILL  CLOUDY    52  48  87 SW15G21   30.45F
TRINIDAD       FAIR      71  47  42 NE9       30.32R
$$

COZ042>045-048>051-090-091-300100-
...NORTHEAST COLORADO...

CITY           SKY/WX    TMP DP  RH WIND       PRES   REMARKS
GREELEY ARPT   PTSUNNY   64  54  68 S9G17     30.28S
AKRON          FAIR      76  54  46 SE12      30.27R
BURLINGTON     FAIR      74  57  55 S8        30.27R
WRAY           NOT AVBL
STERLING       PTSUNNY   77  59  53 SE5       30.23R
HOLYOKE        FAIR      79  63  57 SE6       30.24S
FORT MORGAN    FAIR      78  53  42 SE5       30.26R
$$

COZ086-089-092>099-300100-
...SOUTHEAST COLORADO...

CITY           SKY/WX    TMP DP  RH WIND       PRES   REMARKS
PUEBLO         CLOUDY    66  51  58 N29G39    30.28R
LA JUNTA       PTSUNNY   79  51  37 E7        30.23R
LAMAR          FAIR      78  57  48 S7        30.20R
SPRINGFIELD      N/A     68  59  73 S8        30.25S
$$




USA.gov is the U.S. government's official web portal to all federal, state and local government web resources and services.